Temp
13 13 13 12 12 12 12 11 11 10 10 10 10 10 10 11 10 10 10 10 10 9 9 9 8 8 8 8 8 7 7 7 7 8 9 7 6 5 5 5 4 5 5
12 13 12 11 11 12 11 11 11 10 10 9 9 10 10 9 9 9 9 9 9 9 8 8 8 7 7 7 7 7 6 6 5 4 3 4 4 5 4 5 4 4 4
12 12 12 11 11 11 11 11 10 10 9 8 8 8 8 8 8 8 8 8 8 8 8 7 7 6 6 7 6 6 5 4 4 2 -0 -2 -4 -4 3 3 3 3 2
12 13 12 11 11 11 11 11 10 10 9 8 8 9 10 9 8 8 8 7 7 7 7 6 5 5 5 5 5 4 3 2 2 1 -2 -4 -6 -6 -6 -2 3 2 2
13 12 12 11 10 11 11 10 10 9 8 8 8 8 7 7 7 7 7 6 7 6 6 5 4 4 4 4 3 3 2 1 -1 -2 -2 -3 -4 -5 -7 -7 -5 2 0
12 11 10 10 10 10 10 9 9 9 8 7 7 7 7 7 7 6 6 6 6 5 5 4 4 3 3 2 2 2 0 -1 -2 -2 -3 -4 -6 -7 -8 -8 -7 -8 -1
11 11 9 9 10 10 9 8 9 8 8 7 7 6 6 7 6 6 5 5 5 4 4 3 2 2 2 1 1 -0 -1 -2 -2 -3 -4 -5 -6 -7 -7 -8 -8 -9 -5
12 11 10 9 10 9 9 9 8 8 7 7 7 6 6 6 5 5 5 4 4 3 3 2 1 1 1 1 -0 -2 -3 -3 -3 -4 -4 -5 -6 -6 -8 -8 -9 -9 -9
12 11 9 8 9 9 9 9 8 7 7 7 6 6 6 5 5 5 4 4 3 3 2 1 0 0 -0 -1 -2 -3 -3 -3 -4 -4 -4 -5 -6 -7 -8 -8 -9 -9 -9
11 9 7 7 9 9 8 8 8 8 7 6 6 6 6 5 5 4 4 3 2 2 1 0 -1 -1 -2 -2 -3 -3 -4 -5 -5 -4 -5 -5 -6 -7 -7 -9 -9 -9 -9
10 8 7 6 8 8 8 8 7 7 6 6 5 5 5 4 4 4 3 2 1 1 -0 -1 -2 -2 -3 -3 -4 -4 -6 -6 -5 -5 -6 -6 -7 -7 -8 -8 -9 -9 -10
10 8 6 6 6 7 8 7 6 6 6 6 5 5 4 4 3 3 2 1 1 -0 -1 -2 -3 -3 -4 -5 -5 -6 -6 -6 -6 -6 -7 -7 -8 -8 -9 -9 -9 -10 -10
9 8 7 6 6 7 8 7 6 6 5 5 4 4 3 3 3 3 1 1 -0 -1 -2 -4 -4 -5 -5 -6 -6 -6 -7 -7 -7 -8 -8 -8 -9 -9 -10 -10 -11 -11 -11
8 7 6 6 6 7 7 6 6 5 5 4 4 4 3 3 3 2 0 -0 -1 -2 -3 -4 -5 -6 -6 -7 -7 -7 -7 -8 -8 -8 -9 -9 -9 -10 -12 -12 -12 -12 -12
9 7 7 6 6 7 7 6 6 5 5 4 4 3 3 2 2 0 -0 -1 -2 -3 -4 -5 -6 -6 -7 -7 -7 -7 -8 -8 -8 -9 -9 -9 -10 -10 -13 -12 -12 -13 -13
11 10 8 7 6 7 6 6 6 5 4 3 3 2 2 2 0 -0 -1 -2 -3 -4 -5 -6 -7 -7 -7 -8 -8 -8 -8 -9 -9 -9 -9 -9 -10 -10 -11 -12 -13 -13 -13
11 11 10 9 7 7 6 6 5 4 3 3 2 1 1 -1 -2 -2 -3 -4 -4 -5 -6 -6 -7 -7 -8 -8 -9 -8 -9 -9 -9 -9 -10 -10 -11 -11 -12 -13 -13 -13 -13
12 11 9 8 5 5 4 4 3 3 2 2 0 -2 -2 -4 -3 -3 -3 -4 -5 -5 -6 -7 -7 -8 -8 -9 -10 -9 -9 -9 -9 -10 -11 -11 -11 -12 -14 -14 -14 -14 -14
11 12 12 10 7 5 3 2 2 2 2 0 -1 -2 -2 -4 -3 -3 -4 -5 -5 -6 -7 -7 -8 -8 -9 -10 -10 -10 -10 -10 -10 -11 -12 -12 -13 -14 -14 -14 -15 -15 -15
11 10 9 6 5 3 2 1 1 1 0 -1 -1 -2 -5 -3 -4 -4 -5 -5 -6 -6 -7 -8 -9 -9 -9 -9 -10 -10 -10 -11 -12 -13 -13 -13 -15 -15 -15 -15 -16 -16 -16
11 9 7 5 3 2 1 -0 2 0 -1 -0 -2 -4 -5 -4 -4 -5 -5 -6 -7 -7 -8 -8 -9 -9 -9 -9 -10 -11 -11 -13 -14 -14 -14 -14 -16 -16 -16 -16 -16 -16 -16
8 5 4 2 1 1 0 1 1 -1 -0 -2 -3 -5 -5 -4 -5 -6 -6 -7 -7 -8 -8 -9 -10 -10 -10 -11 -11 -12 -13 -14 -14 -15 -15 -15 -16 -16 -16 -15 -17 -17 -17
4 2 2 1 -0 -0 0 1 -0 -1 -2 -3 -5 -4 -4 -4 -6 -6 -7 -7 -8 -9 -9 -10 -10 -10 -11 -12 -12 -13 -14 -15 -14 -15 -15 -16 -15 -15 -15 -15 -17 -17 -17
2 1 0 -0 -2 -2 -1 -0 -1 -2 -3 -4 -4 -4 -4 -6 -7 -7 -8 -8 -9 -9 -10 -10 -11 -11 -12 -12 -13 -14 -15 -15 -15 -15 -15 -15 -15 -15 -15 -16 -17 -18 -18
0 -0 0 -1 -2 -2 -1 -1 -2 -3 -4 -4 -4 -5 -6 -7 -7 -8 -8 -9 -10 -10 -10 -11 -12 -12 -13 -14 -15 -15 -15 -16 -16 -16 -16 -16 -15 -16 -16 -17 -18 -18 -19
-1 -1 -1 -0 -1 -1 -2 -3 -3 -4 -4 -4 -5 -6 -7 -7 -8 -8 -9 -10 -10 -11 -12 -13 -13 -14 -14 -15 -15 -15 -15 -16 -16 -16 -17 -17 -18 -18 -19 -19 -19 -19 -19
Height
1466 1470 1474 1477 1480 1483 1486 1488 1491 1494 1497 1501 1503 1507 1509 1510 1511 1511 1512 1512 1511 1511 1509 1508 1507 1505 1503 1500 1498 1495 1493 1490 1487 1487 1487 1484 1483 1482 1480 1479 1477 1475 1472
1460 1464 1467 1470 1473 1477 1482 1485 1488 1491 1494 1499 1502 1504 1506 1507 1508 1509 1509 1510 1509 1508 1507 1506 1505 1503 1501 1499 1496 1494 1492 1490 1485 1484 1482 1482 1483 1480 1477 1477 1473 1472 1470
1456 1459 1461 1463 1469 1471 1476 1481 1485 1488 1491 1495 1497 1500 1502 1503 1505 1506 1507 1507 1508 1507 1506 1505 1503 1501 1500 1498 1495 1493 1491 1489 1487 1484 1486 1484 1484 1478 1476 1475 1473 1470 1466
1448 1451 1453 1455 1460 1466 1472 1476 1481 1484 1488 1491 1493 1496 1499 1500 1502 1503 1505 1506 1506 1505 1505 1503 1502 1501 1499 1497 1495 1492 1490 1487 1487 1488 1487 1487 1488 1482 1472 1469 1470 1469 1463
1437 1440 1442 1447 1456 1464 1467 1473 1477 1482 1486 1489 1492 1494 1497 1498 1499 1500 1502 1503 1503 1502 1502 1501 1500 1499 1497 1495 1494 1492 1489 1488 1486 1486 1485 1486 1486 1483 1479 1467 1461 1462 1460
1427 1435 1442 1445 1452 1458 1462 1466 1471 1476 1481 1484 1488 1492 1495 1496 1497 1498 1499 1500 1500 1500 1499 1499 1498 1497 1496 1494 1492 1491 1490 1487 1485 1485 1485 1483 1482 1480 1478 1472 1465 1461 1455
1420 1423 1429 1434 1442 1448 1455 1461 1467 1471 1477 1481 1484 1486 1490 1492 1494 1496 1497 1497 1497 1498 1497 1496 1495 1495 1493 1491 1490 1489 1488 1487 1484 1481 1483 1483 1480 1477 1474 1472 1468 1461 1452
1409 1412 1417 1425 1432 1440 1447 1454 1461 1467 1472 1477 1480 1483 1487 1489 1491 1493 1494 1495 1495 1496 1496 1496 1494 1493 1491 1490 1488 1487 1488 1486 1485 1482 1480 1479 1478 1474 1472 1471 1468 1455 1453
1400 1402 1409 1415 1423 1433 1440 1446 1453 1461 1467 1472 1475 1478 1482 1486 1487 1489 1490 1491 1492 1492 1494 1493 1492 1491 1489 1488 1487 1485 1484 1482 1481 1480 1479 1475 1474 1472 1470 1468 1467 1464 1452
1399 1402 1405 1411 1420 1428 1436 1445 1451 1456 1462 1467 1472 1475 1478 1482 1484 1486 1488 1488 1490 1490 1491 1490 1490 1489 1488 1486 1485 1483 1482 1481 1479 1477 1476 1473 1471 1469 1467 1466 1463 1460 1455
1395 1399 1405 1412 1418 1424 1432 1440 1447 1451 1457 1463 1467 1471 1474 1477 1480 1482 1484 1485 1486 1487 1488 1487 1487 1487 1486 1485 1484 1482 1481 1478 1476 1475 1473 1471 1469 1466 1464 1461 1458 1455 1452
1398 1401 1405 1411 1416 1421 1428 1434 1440 1446 1451 1457 1462 1466 1470 1473 1475 1477 1479 1482 1482 1483 1485 1484 1484 1485 1485 1483 1481 1481 1478 1475 1473 1472 1472 1468 1466 1463 1460 1456 1453 1451 1447
1400 1401 1403 1406 1410 1416 1423 1429 1436 1442 1447 1452 1457 1461 1466 1468 1470 1473 1475 1477 1478 1480 1481 1481 1481 1483 1483 1481 1478 1478 1477 1474 1472 1470 1468 1466 1462 1459 1455 1452 1449 1446 1443
1402 1402 1403 1403 1409 1414 1417 1422 1429 1433 1441 1448 1452 1456 1460 1464 1466 1468 1472 1474 1475 1477 1478 1478 1479 1479 1479 1477 1477 1474 1474 1473 1471 1467 1465 1463 1459 1455 1452 1449 1446 1442 1438
1400 1400 1399 1403 1404 1406 1411 1417 1422 1427 1435 1442 1448 1451 1455 1459 1461 1464 1466 1469 1472 1474 1475 1476 1478 1476 1476 1474 1474 1471 1471 1471 1468 1465 1462 1459 1455 1452 1449 1445 1442 1439 1435
1396 1393 1392 1396 1400 1399 1404 1410 1416 1419 1430 1438 1442 1446 1450 1454 1457 1460 1462 1465 1466 1469 1472 1474 1474 1474 1473 1471 1469 1468 1467 1468 1465 1461 1458 1455 1451 1448 1445 1443 1440 1438 1432
1386 1383 1382 1381 1388 1392 1398 1402 1410 1416 1423 1433 1440 1442 1445 1451 1455 1458 1460 1463 1464 1465 1469 1471 1473 1472 1470 1468 1466 1463 1464 1464 1462 1458 1454 1450 1447 1445 1441 1438 1436 1433 1430
1379 1376 1375 1378 1383 1390 1396 1401 1408 1412 1420 1428 1435 1438 1442 1448 1452 1455 1458 1459 1459 1462 1465 1467 1467 1468 1467 1467 1463 1460 1461 1460 1457 1454 1450 1446 1443 1441 1438 1434 1430 1426 1422
1373 1372 1369 1371 1374 1382 1390 1396 1403 1412 1417 1421 1428 1433 1437 1446 1449 1451 1454 1454 1457 1457 1459 1462 1465 1465 1463 1463 1460 1459 1458 1456 1453 1450 1447 1443 1439 1437 1435 1430 1423 1419 1415
1365 1365 1365 1369 1374 1376 1382 1390 1396 1405 1412 1421 1425 1431 1438 1445 1450 1452 1452 1454 1455 1455 1456 1460 1461 1461 1460 1458 1458 1456 1454 1452 1449 1446 1443 1439 1437 1435 1431 1426 1419 1414 1409
1360 1360 1362 1366 1370 1374 1381 1388 1397 1404 1412 1419 1424 1431 1436 1444 1448 1450 1450 1453 1452 1452 1453 1456 1458 1457 1455 1454 1455 1452 1450 1448 1445 1442 1438 1436 1433 1430 1426 1421 1416 1413 1406
1360 1363 1366 1367 1369 1376 1384 1390 1398 1406 1412 1418 1422 1430 1436 1440 1444 1446 1449 1450 1449 1448 1450 1454 1454 1452 1451 1452 1451 1449 1447 1446 1442 1439 1435 1432 1429 1425 1420 1416 1413 1409 1401
1363 1364 1367 1371 1373 1378 1385 1392 1398 1406 1411 1417 1422 1430 1434 1438 1443 1443 1445 1445 1445 1446 1448 1450 1449 1449 1449 1449 1448 1446 1444 1442 1439 1436 1432 1428 1424 1420 1416 1412 1407 1402 1396
1363 1366 1369 1372 1376 1381 1385 1394 1401 1406 1411 1416 1421 1426 1432 1436 1439 1439 1442 1440 1442 1443 1445 1447 1445 1446 1447 1446 1445 1443 1441 1438 1435 1432 1429 1425 1420 1416 1411 1406 1402 1397 1393
1366 1367 1368 1374 1378 1387 1393 1398 1404 1409 1413 1418 1420 1424 1428 1432 1437 1437 1437 1438 1440 1440 1443 1443 1443 1444 1444 1444 1443 1442 1439 1436 1432 1428 1425 1420 1415 1410 1406 1402 1398 1393 1388
1367 1370 1374 1377 1381 1387 1393 1399 1405 1409 1413 1417 1419 1422 1426 1431 1433 1433 1435 1436 1436 1438 1440 1440 1441 1442 1442 1441 1441 1440 1436 1433 1429 1425 1421 1416 1411 1407 1402 1397 1392 1388 1384
Wind_Speed
45 41 37 34 32 30 31 31 31 29 27 25 22 18 13 10 7 4 0 3 7 10 12 15 16 18 20 22 23 24 25 25 26 24 20 12 11 3 11 21 14 20 21
45 44 41 39 36 34 31 31 30 30 28 24 20 16 14 12 8 4 1 3 6 9 12 14 16 18 19 20 21 23 23 24 26 26 20 11 10 9 14 12 21 20 23
45 46 46 44 39 36 33 32 31 30 28 25 23 20 17 14 10 6 2 2 5 9 11 13 15 17 19 21 22 22 23 21 21 23 19 9 7 27 9 18 24 26 32
50 51 50 49 45 38 33 32 32 31 30 28 25 22 19 16 11 7 5 3 4 7 10 12 14 16 17 18 19 20 20 20 21 19 19 12 10 9 15 18 22 33 31
52 55 57 53 46 38 35 33 32 32 30 28 25 23 20 15 13 10 7 4 4 6 8 11 13 15 16 17 17 18 19 18 17 18 17 17 17 9 17 21 37 34 34
51 51 52 51 46 41 38 35 34 33 31 29 26 23 20 18 15 11 9 5 4 6 8 10 12 14 14 15 17 17 16 15 15 14 15 15 15 17 15 26 33 34 37
46 52 55 56 53 47 42 37 35 35 32 29 26 25 22 19 15 11 9 6 6 6 8 9 10 12 13 15 16 15 13 13 14 16 18 16 14 15 16 20 27 34 43
50 54 57 57 58 50 45 40 38 34 32 30 28 26 22 19 16 12 10 8 7 7 7 9 10 11 13 13 12 10 11 13 16 18 18 16 15 15 15 16 24 38 24
48 54 55 56 59 53 48 44 39 35 33 31 29 26 23 20 17 14 11 9 8 7 7 8 10 11 12 12 10 9 10 13 17 19 18 17 16 15 15 14 18 25 24
34 40 46 51 55 54 49 41 37 35 33 31 28 26 23 20 17 14 12 9 8 7 7 8 9 9 9 10 10 10 11 14 17 19 18 17 16 15 15 14 21 23 24
34 38 40 45 52 53 47 42 39 37 34 31 29 26 24 20 17 14 12 10 9 8 7 7 7 7 8 9 10 10 12 15 18 19 17 16 17 19 19 21 22 21 23
28 33 38 42 47 50 47 45 41 38 34 32 30 26 24 20 17 15 12 11 9 8 7 6 7 7 8 8 9 10 13 16 19 20 19 18 18 20 20 20 22 21 21
24 32 37 44 48 51 48 46 42 39 36 33 31 28 25 21 18 15 13 12 10 8 7 5 7 7 7 10 10 12 14 17 20 20 19 19 20 20 20 22 19 19 27
24 30 35 42 46 49 50 48 45 42 38 35 32 28 25 21 18 16 14 11 10 8 6 5 7 6 8 9 11 12 15 18 20 20 19 20 19 19 20 20 21 25 27
23 28 34 40 46 50 52 50 47 44 41 37 33 29 25 21 19 17 14 12 10 7 6 7 7 6 8 10 12 14 16 20 22 20 20 19 19 18 18 20 21 24 29
30 36 38 41 47 52 56 54 50 46 42 39 36 29 25 23 19 18 15 13 10 7 7 8 7 7 9 10 15 15 17 21 22 21 20 20 19 20 19 16 20 20 28
34 40 45 46 48 51 56 57 52 48 45 38 34 28 26 21 20 16 14 12 9 8 9 8 9 9 9 11 14 18 19 21 21 20 20 21 20 19 19 21 23 29 29
26 35 41 44 40 43 49 51 50 49 44 38 32 30 23 19 20 16 14 13 11 10 10 10 9 10 10 12 15 21 20 19 18 18 20 21 20 19 21 25 30 31 28
27 32 38 42 42 43 47 48 48 47 42 39 34 24 20 23 20 18 17 14 12 12 11 10 10 11 11 14 17 21 20 18 17 18 19 19 19 19 21 26 31 31 28
32 29 35 35 38 42 47 48 50 47 40 29 23 21 21 20 18 17 16 14 13 11 9 11 12 13 14 16 18 18 17 16 17 20 19 18 19 20 21 24 28 27 31
21 19 30 34 36 40 43 46 46 41 32 26 22 21 21 19 18 18 15 14 13 11 10 12 14 14 14 14 14 15 14 15 18 20 21 21 20 20 21 21 22 24 30
11 18 25 30 34 36 40 42 42 34 27 23 22 23 22 20 18 17 15 15 13 11 11 14 14 13 12 11 11 10 11 11 17 21 22 25 23 22 24 25 21 23 27
18 22 26 29 31 32 33 41 36 30 25 24 25 23 20 18 19 16 15 15 12 12 12 14 12 10 9 8 8 7 11 12 17 22 24 25 25 25 25 25 22 22 28
20 22 24 28 30 32 36 31 26 23 23 24 25 21 20 20 17 15 14 12 13 12 12 12 9 7 6 7 8 12 13 15 21 24 25 25 25 24 25 25 25 23 27
20 24 25 28 29 25 23 21 19 19 21 23 20 20 20 17 16 14 12 12 11 9 8 7 6 5 5 8 10 14 16 16 20 24 23 25 26 27 27 27 27 27 28
22 23 25 27 27 26 22 20 17 18 21 21 20 19 17 17 16 14 14 11 8 7 5 4 5 6 7 9 11 11 17 21 22 22 24 25 26 28 30 30 30 30 30
Wind_Direction
203 203 203 203 201 200 198 197 195 193 195 193 193 196 197 198 199 209 352 357 355 355 351 350 352 350 349 351 350 350 348 345 344 343 348 346 344 10 327 314 333 321 334
201 203 204 204 204 202 201 201 200 198 198 200 198 200 201 195 197 203 232 345 352 351 347 348 349 348 350 350 350 350 351 352 353 358 357 351 338 320 323 320 326 324 333
200 204 204 205 202 203 202 204 202 201 199 197 200 199 199 198 198 195 219 316 344 343 341 343 344 347 349 348 349 349 351 355 358 3 12 0 336 331 322 328 334 330 336
211 210 207 204 203 202 206 206 204 201 198 200 207 212 207 198 198 200 210 247 319 328 333 338 343 346 346 346 348 351 353 354 358 358 1 357 339 332 320 315 333 331 336
213 213 212 208 202 204 205 204 202 201 202 205 206 203 199 200 202 203 210 231 287 312 326 331 342 344 345 346 347 346 351 352 349 351 353 344 335 340 311 316 323 332 335
213 213 211 208 201 203 206 203 200 201 202 201 200 204 206 204 203 206 213 231 273 299 315 329 339 343 344 344 343 344 346 346 347 351 348 341 336 327 328 319 322 324 329
204 210 208 207 202 200 199 199 200 201 201 202 200 200 203 204 203 209 222 239 264 285 307 325 333 338 341 340 336 339 339 344 347 349 345 339 330 323 323 321 326 322 329
211 211 210 206 203 199 198 198 198 199 200 200 199 198 201 202 200 208 221 236 252 276 304 319 327 333 339 338 341 341 339 344 345 346 343 340 333 331 330 326 322 329 323
209 210 207 203 203 200 197 199 197 198 199 200 199 198 199 201 203 209 217 230 246 270 293 307 318 332 341 345 349 343 340 341 343 346 343 339 333 332 328 324 313 326 318
203 200 200 198 203 202 198 198 201 200 199 199 201 200 199 201 205 209 218 230 248 263 275 291 309 329 342 346 346 343 343 344 345 347 343 337 333 328 323 312 309 316 313
199 198 195 197 202 201 198 197 197 198 198 200 201 200 200 202 203 209 218 228 241 251 263 282 305 329 339 347 351 348 343 348 348 346 343 338 330 325 321 316 317 320 317
203 200 197 195 197 199 198 199 196 197 200 202 202 202 203 203 205 208 217 227 239 245 260 274 299 327 334 350 353 345 345 347 347 345 340 336 331 327 324 321 324 323 308
203 202 201 201 201 202 200 200 198 200 200 201 200 201 204 206 207 213 215 224 235 241 249 264 294 316 327 343 346 345 344 344 343 342 337 334 331 329 327 328 331 307 309
217 209 206 206 203 205 203 200 200 200 199 200 200 202 205 206 210 212 215 222 227 235 237 255 275 290 316 333 334 340 338 340 338 337 334 331 331 332 325 328 315 317 321
238 225 219 216 209 206 205 204 203 201 200 200 202 203 203 206 207 208 212 212 215 225 242 256 256 280 308 317 322 337 337 335 335 334 331 331 330 325 327 328 331 330 327
261 250 236 223 217 210 207 205 204 199 198 200 200 199 201 204 203 207 205 204 210 228 245 242 252 279 300 312 316 327 334 330 330 329 328 329 330 328 331 332 331 322 317
252 244 237 230 222 216 211 206 204 198 195 198 200 196 199 198 203 199 200 202 216 230 233 238 259 278 294 302 306 319 328 327 325 324 328 331 331 332 333 340 321 313 315
292 247 233 225 219 215 208 206 203 195 193 195 193 192 196 198 197 201 204 208 216 226 234 243 259 273 291 295 308 313 320 321 322 325 331 329 331 340 345 325 314 318 324
287 259 249 233 220 212 206 202 196 193 193 190 194 195 197 198 200 201 206 212 219 223 231 248 259 273 284 293 303 304 314 318 323 329 332 331 333 348 331 319 318 323 328
292 253 235 216 208 201 199 197 190 189 189 190 199 196 186 204 204 209 211 217 223 225 233 244 253 265 279 292 295 299 313 321 327 331 334 332 335 331 329 323 322 328 330
283 242 214 204 198 196 197 190 192 189 189 201 191 181 192 203 213 215 217 223 219 223 235 247 257 271 285 291 294 303 314 327 324 328 333 331 336 330 328 328 328 330 316
241 206 190 184 185 191 194 194 186 191 196 190 181 182 198 207 214 216 213 214 220 229 242 251 262 274 284 289 299 313 324 326 319 329 331 329 329 328 327 326 327 323 325
191 190 190 181 181 188 196 188 191 191 183 180 175 193 205 214 212 214 214 214 224 235 246 251 259 268 274 293 314 329 327 324 323 324 324 323 325 324 323 324 329 326 337
185 183 179 174 171 182 185 190 176 178 182 173 189 199 210 206 207 210 220 226 233 239 243 246 249 263 270 314 325 340 329 318 315 318 323 324 325 325 327 331 334 333 337
182 184 182 178 174 173 172 174 179 185 176 188 198 202 202 210 214 216 227 229 229 240 241 244 256 279 306 342 355 335 315 313 315 317 323 331 336 337 338 337 335 335 335
179 178 177 174 172 176 176 175 184 175 190 198 197 200 208 213 218 221 217 212 222 227 235 245 284 314 313 333 317 328 303 307 314 323 330 338 341 341 341 339 336 335 333